This is the latest recevied weather packets stored in our database for station/object FREPRT-WX. If no packets are shown the sender has not sent any weather packets the latest 10 day(s).
| Time | Temp. | Humidity | Pressure | Rain* | Wind** | Luminosity | Snow |
|---|---|---|---|---|---|---|---|
| 1777917679 | 22.22° C | 31% | 973.3 hPa | 0 mm | - | - | - |
| 1777916743 | 22.22° C | 34% | 974.2 hPa | 0 mm | - | - | - |
| 1777915860 | 21.67° C | 38% | 974 hPa | 0 mm | - | - | - |
| 1777914943 | 21.11° C | 38% | 974 hPa | 0 mm | - | - | - |
| 1777914069 | 21.11° C | 34% | 973.8 hPa | 0 mm | - | - | - |
| 1777913143 | 20.56° C | 44% | 974.3 hPa | 0 mm | - | - | - |
| 1777912257 | 20° C | 44% | 974.3 hPa | 0 mm | - | - | - |
| 1777911343 | 19.44° C | 44% | 974.3 hPa | 0 mm | - | - | - |
| 1777910475 | 19.44° C | 44% | 974.3 hPa | 0 mm | - | - | - |
| 1777909543 | 18.89° C | 59% | 974.8 hPa | 0 mm | - | - | - |
| 1777908659 | 17.78° C | 59% | 974.7 hPa | 0 mm | - | - | - |
| 1777907744 | 17.22° C | 59% | 974.7 hPa | 0 mm | - | - | - |
| 1777906878 | 17.22° C | 59% | 974.7 hPa | 0 mm | - | - | - |
| 1777905942 | 16.67° C | 63% | 975.1 hPa | 0 mm | - | - | - |
| 1777905061 | 16.11° C | 64% | 975.8 hPa | 0 mm | - | - | - |
| 1777904138 | 15° C | 64% | 975.8 hPa | 0 mm | - | - | - |
| 1777903281 | 14.44° C | 63% | 974.9 hPa | 0 mm | - | - | - |
| 1777902342 | 14.44° C | 68% | 974.8 hPa | 0 mm | - | - | - |
| 1777901460 | 13.33° C | 68% | 974.8 hPa | 0 mm | - | - | - |
| 1777900543 | 12.78° C | 68% | 974.8 hPa | 0 mm | - | - | - |
| 1777899675 | 12.22° C | 72% | 974.8 hPa | 0 mm | - | - | - |
| 1777898742 | 11.67° C | 74% | 975.2 hPa | 0 mm | - | - | - |
| 1777897860 | 11.11° C | 74% | 975.2 hPa | 0 mm | - | - | - |
| 1777896942 | 10.56° C | 74% | 975.2 hPa | 0 mm | - | - | - |
| 1777896077 | 10° C | 74% | 975.2 hPa | 0 mm | - | - | - |
* Rain latest hour (hover to see other rain measurements)
** Current wind speed in m/s (hover to see current wind gust speed)